When you browse on this site, cookies collect data to enhance your experience and personalize the content and advertising you see.
Visit our Privacy Policy to learn more. By continuing to use the site, you agree to this use of cookies and data.

Stündliche Wetter 2-e Itkulovo

Heute, 9 August, Sonntag

Zeit Temperatur Niederschläge Wind Luftdruck Luftfeuchtigkeit
00:00 +16°C° 0.3 mm 3 m/S 702 mmHg 95%
01:00 +16°C° 0.3 mm 3 m/S 701 mmHg 97%
02:00 +16°C° 0.9 mm 3 m/S 701 mmHg 97%
03:00 +16°C° 0.9 mm 2 m/S 701 mmHg 97%
04:00 +16°C° 0 mm 2 m/S 701 mmHg 97%
05:00 +16°C° 2.5 mm 2 m/S 700 mmHg 97%
06:00 +16°C° 2.5 mm 2 m/S 700 mmHg 97%
07:00 +16°C° 2.5 mm 2 m/S 700 mmHg 97%
08:00 +17°C° 1.2 mm 2 m/S 700 mmHg 93%
09:00 +17°C° 1.2 mm 2 m/S 700 mmHg 88%
10:00 +18°C° 1.2 mm 2 m/S 700 mmHg 84%
11:00 +19°C° 0.6 mm 2 m/S 700 mmHg 84%
12:00 +19°C° 0.6 mm 3 m/S 700 mmHg 83%
13:00 +19°C° 0.6 mm 3 m/S 700 mmHg 82%
14:00 +19°C° 0.6 mm 3 m/S 700 mmHg 81%
15:00 +19°C° 0.6 mm 4 m/S 700 mmHg 80%
16:00 +19°C° 0.6 mm 4 m/S 699 mmHg 79%
17:00 +18°C° 0 mm 4 m/S 699 mmHg 81%
18:00 +17°C° 0 mm 4 m/S 699 mmHg 83%
19:00 +15°C° 0 mm 4 m/S 699 mmHg 85%
20:00 +14°C° 0 mm 4 m/S 698 mmHg 89%
21:00 +13°C° 0 mm 3 m/S 698 mmHg 93%
22:00 +12°C° 0 mm 3 m/S 698 mmHg 96%
23:00 +12°C° 0.1 mm 3 m/S 698 mmHg 96%

Morgen, 10 August, Montag

Zeit Temperatur Niederschläge Wind Luftdruck Luftfeuchtigkeit
00:00 +12°C° 0.1 mm 3 m/S 697 mmHg 96%
01:00 +14°C° 0.1 mm 2 m/S 697 mmHg 96%
02:00 +14°C° 0.7 mm 2 m/S 697 mmHg 97%
03:00 +14°C° 0.7 mm 2 m/S 697 mmHg 97%
04:00 +13°C° 0.7 mm 3 m/S 697 mmHg 97%
05:00 +13°C° 2.3 mm 3 m/S 697 mmHg 97%
06:00 +13°C° 2.3 mm 3 m/S 697 mmHg 97%
07:00 +13°C° 2.3 mm 4 m/S 697 mmHg 97%
08:00 +13°C° 2.5 mm 4 m/S 697 mmHg 97%
09:00 +13°C° 2.5 mm 5 m/S 697 mmHg 97%
10:00 +13°C° 2.5 mm 6 m/S 697 mmHg 96%
11:00 +13°C° 0.4 mm 6 m/S 698 mmHg 95%
12:00 +13°C° 0.4 mm 6 m/S 698 mmHg 93%
13:00 +13°C° 0.4 mm 6 m/S 698 mmHg 92%
14:00 +13°C° 0 mm 6 m/S 699 mmHg 91%
15:00 +12°C° 0 mm 7 m/S 699 mmHg 91%
16:00 +12°C° 0 mm 7 m/S 699 mmHg 91%
17:00 +12°C° 0.1 mm 7 m/S 699 mmHg 91%
18:00 +12°C° 0.1 mm 7 m/S 699 mmHg 91%
19:00 +11°C° 0.1 mm 7 m/S 700 mmHg 91%
20:00 +12°C° 0 mm 7 m/S 700 mmHg 91%
21:00 +13°C° 0 mm 6 m/S 700 mmHg 90%
22:00 +13°C° 0 mm 6 m/S 700 mmHg 90%
23:00 +13°C° 0 mm 6 m/S 700 mmHg 91%

übermorgen, 11 August, Dienstag

Zeit Temperatur Niederschläge Wind Luftdruck Luftfeuchtigkeit
00:00 +13°C° 0 mm 5 m/S 700 mmHg 93%
01:00 +12°C° 0 mm 5 m/S 700 mmHg 94%
02:00 +13°C° 0 mm 5 m/S 701 mmHg 93%
03:00 +13°C° 0 mm 5 m/S 701 mmHg 93%
04:00 +13°C° 0 mm 5 m/S 701 mmHg 92%
05:00 +13°C° 0.1 mm 5 m/S 702 mmHg 93%
06:00 +13°C° 0.1 mm 5 m/S 702 mmHg 94%
07:00 +13°C° 0.1 mm 5 m/S 702 mmHg 94%
08:00 +13°C° 0 mm 5 m/S 703 mmHg 92%
09:00 +14°C° 0 mm 5 m/S 703 mmHg 90%
10:00 +14°C° 0 mm 6 m/S 703 mmHg 87%
11:00 +15°C° 0 mm 5 m/S 704 mmHg 85%
12:00 +15°C° 0 mm 5 m/S 704 mmHg 84%
13:00 +15°C° 0 mm 5 m/S 704 mmHg 82%
14:00 +15°C° 0 mm 5 m/S 705 mmHg 82%
15:00 +15°C° 0 mm 5 m/S 705 mmHg 82%
16:00 +15°C° 0 mm 6 m/S 705 mmHg 82%
17:00 +14°C° 0 mm 5 m/S 706 mmHg 83%
18:00 +14°C° 0 mm 5 m/S 706 mmHg 85%
19:00 +13°C° 0 mm 5 m/S 706 mmHg 86%
20:00 +13°C° 0 mm 4 m/S 706 mmHg 88%
21:00 +12°C° 0 mm 4 m/S 706 mmHg 89%
22:00 +11°C° 0 mm 3 m/S 706 mmHg 91%
23:00 +11°C° 0 mm 3 m/S 706 mmHg 93%

12 August, Mittwoch

Zeit Temperatur Niederschläge Wind Luftdruck Luftfeuchtigkeit
00:00 +10°C° 0 mm 2 m/S 707 mmHg 94%
01:00 +10°C° 0 mm 2 m/S 707 mmHg 96%
02:00 +9°C° 0 mm 2 m/S 707 mmHg 95%
03:00 +9°C° 0 mm 2 m/S 707 mmHg 95%
04:00 +9°C° 0 mm 2 m/S 707 mmHg 94%
05:00 +10°C° 0 mm 2 m/S 707 mmHg 91%
06:00 +12°C° 0 mm 2 m/S 708 mmHg 89%
07:00 +13°C° 0 mm 2 m/S 708 mmHg 87%
08:00 +15°C° 0 mm 2 m/S 708 mmHg 77%
09:00 +16°C° 0 mm 2 m/S 709 mmHg 68%
10:00 +18°C° 0 mm 3 m/S 709 mmHg 58%
11:00 +19°C° 0 mm 2 m/S 709 mmHg 55%
12:00 +20°C° 0 mm 2 m/S 709 mmHg 51%
13:00 +21°C° 0 mm 2 m/S 709 mmHg 48%
14:00 +22°C° 0 mm 1 m/S 709 mmHg 48%
15:00 +22°C° 0 mm 1 m/S 709 mmHg 49%
16:00 +22°C° 0 mm 1 m/S 710 mmHg 49%
17:00 +20°C° 0 mm 1 m/S 709 mmHg 57%
18:00 +19°C° 0 mm 1 m/S 709 mmHg 65%
19:00 +16°C° 0 mm 1 m/S 709 mmHg 73%
20:00 +15°C° 0 mm 1 m/S 709 mmHg 76%
21:00 +14°C° 0 mm 1 m/S 709 mmHg 80%
22:00 +11°C° 0 mm 0 m/S 709 mmHg 83%
23:00 +12°C° 0 mm 1 m/S 709 mmHg 84%

13 August, Donnerstag

Zeit Temperatur Niederschläge Wind Luftdruck Luftfeuchtigkeit
00:00 +12°C° 0 mm 1 m/S 709 mmHg 84%
01:00 +12°C° 0 mm 1 m/S 709 mmHg 85%
02:00 +11°C° 0 mm 1 m/S 709 mmHg 86%
03:00 +11°C° 0 mm 1 m/S 709 mmHg 86%
04:00 +11°C° 0 mm 1 m/S 709 mmHg 87%
05:00 +12°C° 0 mm 1 m/S 709 mmHg 84%
06:00 +13°C° 0 mm 1 m/S 709 mmHg 82%
07:00 +14°C° 0 mm 2 m/S 710 mmHg 80%
08:00 +16°C° 0 mm 2 m/S 710 mmHg 76%
09:00 +17°C° 0 mm 3 m/S 710 mmHg 72%
10:00 +19°C° 0 mm 4 m/S 710 mmHg 68%
11:00 +20°C° 0.1 mm 4 m/S 710 mmHg 65%
12:00 +20°C° 0.1 mm 4 m/S 709 mmHg 63%
13:00 +21°C° 0.1 mm 4 m/S 709 mmHg 61%
14:00 +21°C° 0.1 mm 4 m/S 709 mmHg 61%
15:00 +21°C° 0.1 mm 4 m/S 709 mmHg 61%
16:00 +21°C° 0.1 mm 4 m/S 708 mmHg 61%
17:00 +19°C° 0.1 mm 3 m/S 708 mmHg 67%
18:00 +18°C° 0.1 mm 2 m/S 708 mmHg 72%
19:00 +18°C° 0.1 mm 1 m/S 708 mmHg 77%
20:00 +16°C° 0 mm 1 m/S 708 mmHg 78%
21:00 +15°C° 0 mm 1 m/S 707 mmHg 79%
22:00 +14°C° 0 mm 1 m/S 707 mmHg 80%
23:00 +14°C° 0 mm 1 m/S 707 mmHg 82%

14 August, Freitag

Zeit Temperatur Niederschläge Wind Luftdruck Luftfeuchtigkeit
00:00 +14°C° 0 mm 2 m/S 707 mmHg 84%
01:00 +13°C° 0 mm 2 m/S 707 mmHg 86%
02:00 +13°C° 0 mm 2 m/S 706 mmHg 86%
03:00 +13°C° 0 mm 2 m/S 706 mmHg 85%
04:00 +12°C° 0 mm 3 m/S 706 mmHg 84%
05:00 +13°C° 0.2 mm 2 m/S 706 mmHg 87%
06:00 +13°C° 0.2 mm 2 m/S 706 mmHg 89%
07:00 +13°C° 0.2 mm 2 m/S 705 mmHg 91%
08:00 +14°C° 0.3 mm 2 m/S 705 mmHg 90%
09:00 +13°C° 0.3 mm 3 m/S 705 mmHg 89%
10:00 +14°C° 0.3 mm 3 m/S 705 mmHg 88%
11:00 +17°C° 0.2 mm 3 m/S 705 mmHg 83%
12:00 +18°C° 0.2 mm 3 m/S 705 mmHg 77%
13:00 +20°C° 0.2 mm 4 m/S 705 mmHg 72%
14:00 +20°C° 0.6 mm 4 m/S 705 mmHg 74%
15:00 +19°C° 0.6 mm 4 m/S 705 mmHg 76%
16:00 +19°C° 0.6 mm 4 m/S 705 mmHg 78%
17:00 +18°C° 0.4 mm 3 m/S 705 mmHg 81%
18:00 +16°C° 0.4 mm 3 m/S 705 mmHg 85%
19:00 +15°C° 0.4 mm 2 m/S 705 mmHg 88%
20:00 +14°C° 0 mm 2 m/S 705 mmHg 90%
21:00 +13°C° 0 mm 2 m/S 705 mmHg 91%
22:00 +12°C° 0 mm 2 m/S 705 mmHg 93%
23:00 +10°C° 0 mm 2 m/S 705 mmHg 93%
Mehr zeigen